[[{"header":{"parameterUnit":"m.s-1","parameterCategory":1,"la1":30.2991,"la2":30.254,"lo1":-89.0895,"lo2":-89.0444,"dy":0.0017,"dx":0.0017,"nx":28,"ny":28,"refTime":"2025-09-18T21:00:00:Z","depth":0,"parameterNumber":2,"parameterNumberName":"U-component_of_WINDS"},"data":[0,0,0,0,0,0,0,0,0,0,0,0,0,0,0,0,0,0,0,0,0,0,0,0,0,0,0,0,0,0,0,0,0,0,0,0,0,0,0,0,0,0,0,0,0,0,0,0,0,0,0,0,0,0,0,0,0,0,1.0171,1.0171,0,1.0199,1.0199,1.02,1.0183,1.0182,1.0182,1.0181,1.0209,1.021,1.0211,0,0,0,0,0,0,0,0,0,0,0,0,0,1.0101,1.0102,1.0171,1.0171,1.0171,1.0199,1.0199,1.02,1.0183,1.0182,1.0181,1.0181,1.0208,1.021,1.0212,0,0,0,0,0,0,0,0,0,0,0,0,0,1.013,1.0103,1.0171,1.0167,1.0166,1.0199,1.0199,1.02,1.0184,1.0182,1.0181,1.018,1.0207,1.021,1.0212,1.0249,0,0,1.0219,1.022,0,0,0,0,0,0,0,0,1.0129,1.0133,1.0167,1.0167,1.0167,1.0186,1.0185,1.0216,1.0184,1.0177,1.0181,1.0179,1.0202,1.0205,1.0213,1.0251,1.0252,1.0219,1.022,1.0221,1.0222,0,0,0,0,0,0,0,1.0127,1.0132,1.0182,1.0167,1.0167,1.0163,1.0166,1.0191,1.0196,1.0178,1.0176,1.018,1.0202,1.021,1.0213,1.0252,1.0219,1.0221,1.0222,1.0223,1.0322,1.0323,0,0,0,0,0,0,1.0125,1.013,1.0181,1.0183,1.0145,1.0165,1.0168,1.0181,1.0196,1.0197,1.0181,1.0179,1.0207,1.021,1.0214,1.0258,1.0221,1.0223,1.0224,1.032,1.0322,1.0323,0,0,0,0,0,0,1.0124,1.013,1.018,1.0156,1.0162,1.0168,1.0182,1.0182,1.0191,1.0198,1.0199,1.0189,1.0206,1.0211,1.0241,1.0259,1.0224,1.0226,1.0319,1.0321,1.0323,1.0347,0,0,0,0,0,0,1.0122,1.0129,1.0144,1.0157,1.0163,1.0206,1.0183,1.0184,1.0195,1.0193,1.0206,1.0207,1.0206,1.0237,1.0243,1.0261,1.0228,1.0317,1.032,1.0322,1.0345,1.035,1.0354,0,0,0,0,0,1.0119,1.015,1.0145,1.0151,1.0182,1.0207,1.0211,1.021,1.0197,1.0211,1.0216,1.0206,1.0256,1.0241,1.0247,1.0266,1.0316,1.0319,1.0322,1.0343,1.0349,1.0354,0,0,0,0,0,0,1.0139,1.0151,1.0146,1.0181,1.0194,1.0205,1.0223,1.0217,1.0232,1.023,1.0227,1.023,1.0261,1.0266,1.0249,1.0303,1.0284,1.0288,1.0298,1.0303,1.0308,1.0305,1.023,0,0,0,0,0,1.0147,1.0167,1.0177,1.0207,1.0214,1.0217,1.0228,1.0226,1.0239,1.0244,1.025,1.0262,1.028,1.0292,1.031,1.0346,1.0348,1.0362,1.0367,1.037,1.0374,1.0392,1.0399,1.0333,1.0333,1.0333,0,0,1.0165,1.0174,1.0187,1.0211,1.0221,1.0241,1.0222,1.0244,1.0259,1.0247,1.0275,1.0281,1.0294,1.0327,1.0341,1.0332,1.0392,1.0374,1.0377,1.0378,1.0396,1.0402,1.0408,1.0335,1.0335,1.0334,0,0,1.0207,1.0216,1.0242,1.0252,1.0266,1.0268,1.0275,1.0287,1.029,1.0319,1.031,1.0327,1.0359,1.0368,1.0377,1.0423,1.0415,1.0429,1.0452,1.0471,1.0476,1.048,1.0496,1.0501,1.0432,1.0432,1.0433,0,1.0227,1.0257,1.0256,1.0279,1.029,1.028,1.0306,1.0316,1.0335,1.0342,1.0332,1.0371,1.0379,1.0414,1.0425,1.0433,1.0439,1.0427,1.0475,1.048,1.0484,1.0499,1.0505,1.0434,1.0434,1.0434,1.0434,0,1.028,1.0302,1.0321,1.034,1.0353,1.0377,1.0379,1.0392,1.0389,1.0393,1.0421,1.0431,1.045,1.0458,1.0455,1.0492,1.0486,1.0476,1.0457,1.0492,1.0505,1.0511,1.0436,1.0436,1.0435,1.0435,0,0,1.0335,1.0353,1.036,1.0368,1.0383,1.0399,1.0423,1.0442,1.0453,1.0466,1.0485,1.0513,1.0503,1.0513,1.0512,1.0528,1.0562,1.0515,1.0516,1.0523,1.0603,1.0609,1.0616,1.0558,1.0559,1.056,1.0601,0,1.0377,1.0418,1.0418,1.0457,1.0476,1.0467,1.0488,1.0499,1.0503,1.0519,1.0523,1.0542,1.0529,1.0535,1.055,1.0555,1.0578,1.0552,1.0574,1.0575,1.057,1.0623,1.063,1.0669,1.0607,1.0607,1.0608,0,1.0431,1.0447,1.0487,1.0499,1.0507,1.0526,1.0543,1.0559,1.0571,1.0573,1.0584,1.058,1.0603,1.0585,1.0617,1.0599,1.0608,1.0612,1.0613,1.0614,1.0593,1.0625,1.0682,1.0687,1.0617,1.0616,1.0615,0,1.0465,1.0497,1.0525,1.0532,1.0547,1.056,1.0567,1.0578,1.0589,1.0604,1.0611,1.0628,1.0637,1.0651,1.0651,1.0637,1.0683,1.0664,1.0684,1.0684,1.0693,1.0692,1.0751,1.0701,1.0701,1.0701,1.0701,0,1.0512,1.0537,1.054,1.0557,1.0584,1.0584,1.0611,1.0616,1.0626,1.0644,1.0638,1.0654,1.0654,1.0671,1.0671,1.0697,1.0702,1.0703,1.0702,1.0703,1.0702,1.0708,1.0705,1.0702,1.0702,1.0702,1.0701,0,1.0554,1.0558,1.0587,1.0599,1.0603,1.0622,1.0632,1.0648,1.0651,1.0674,1.0679,1.0684,1.0703,1.0705,1.0728,1.0728,1.0759,1.0756,1.0754,1.0753,1.0772,1.077,1.0836,1.0844,1.079,1.079,1.0791,0,1.0583,1.0602,1.0616,1.0627,1.0635,1.0653,1.0665,1.0665,1.0677,1.0693,1.0706,1.0725,1.074,1.0771,1.0777,1.0794,1.0791,1.0813,1.0793,1.0792,1.0789,1.0788,1.0789,1.0816,1.0816,1.0817,1.0817,0,1.0633,1.0634,1.0651,1.0668,1.0682,1.0696,1.0709,1.0718,1.072,1.0734,1.0754,1.0765,1.0788,1.0807,1.0824,1.083,1.0824,1.0824,1.0829,1.0829,1.0827,1.0827,1.0763,1.0822,1.0821,1.0821,1.0821,1.0821,1.0669,1.0685,1.0697,1.0716,1.0726,1.0738,1.0753,1.0759,1.0775,1.0794,1.0793,1.0815,1.0827,1.0849,1.0856,1.0873,1.0865,1.0873,1.0875,1.0876,1.0878,1.0825,1.0876,1.0876,1.0876,1.0876,1.0876,0,1.0718,1.0725,1.0743,1.0761,1.0776,1.0769,1.0783,1.0796,1.0815,1.0827,1.0842,1.0864,1.0882,1.0889,1.0906,1.0918,1.0916,1.0922,1.0921,1.0922,1.0884,1.0877,1.0924,1.0924,1.0924,1.0924,1.0924,1.0924,1.0745,1.0771,1.0774,1.0805,1.0812,1.0833,1.0842,1.0853,1.0862,1.0887,1.0902,1.0907,1.0917,1.0935,1.095,1.0952,1.0958,1.0966,1.0966,1.093,1.0925,1.092,1.0914,1.0968,1.0968,1.1003,1.1003,1.1003]},{"header":{"parameterUnit":"m.s-1","parameterCategory":1,"la1":30.2991,"la2":30.254,"lo1":-89.0895,"lo2":-89.0444,"dy":0.0017,"dx":0.0017,"nx":28,"ny":28,"refTime":"2025-09-18T21:00:00:Z","depth":0,"parameterNumber":3,"parameterNumberName":"V-component_of_WINDS"},"data":[0,0,0,0,0,0,0,0,0,0,0,0,0,0,0,0,0,0,0,0,0,0,0,0,0,0,0,0,0,0,0,0,0,0,0,0,0,0,0,0,0,0,0,0,0,0,0,0,0,0,0,0,0,0,0,0,0,0,-1.6475,-1.6476,0,-1.6524,-1.6525,-1.6525,-1.6556,-1.6556,-1.6556,-1.6556,-1.6606,-1.6607,-1.6608,0,0,0,0,0,0,0,0,0,0,0,0,0,-1.6408,-1.6409,-1.6475,-1.6476,-1.6477,-1.6524,-1.6525,-1.6526,-1.6556,-1.6556,-1.6556,-1.6556,-1.6605,-1.6606,-1.6608,0,0,0,0,0,0,0,0,0,0,0,0,0,-1.6445,-1.6409,-1.6475,-1.6497,-1.65,-1.6524,-1.6525,-1.6526,-1.6556,-1.6556,-1.6556,-1.6556,-1.6605,-1.6606,-1.6608,-1.6614,0,0,-1.6613,-1.6614,0,0,0,0,0,0,0,0,-1.6443,-1.6447,-1.6494,-1.6496,-1.6499,-1.6534,-1.6519,-1.6555,-1.6556,-1.6534,-1.6556,-1.6557,-1.6582,-1.6585,-1.6594,-1.6616,-1.6618,-1.6614,-1.6615,-1.6615,-1.6616,0,0,0,0,0,0,0,-1.644,-1.6445,-1.6495,-1.6494,-1.6497,-1.6505,-1.651,-1.6526,-1.6556,-1.6536,-1.6539,-1.6544,-1.6583,-1.6592,-1.6595,-1.6619,-1.6613,-1.6615,-1.6616,-1.6617,-1.6649,-1.6649,0,0,0,0,0,0,-1.6434,-1.6443,-1.6493,-1.6496,-1.6471,-1.6506,-1.6512,-1.6523,-1.6556,-1.6561,-1.6544,-1.6545,-1.6589,-1.6593,-1.6597,-1.6606,-1.6615,-1.6617,-1.6618,-1.6649,-1.6649,-1.6649,0,0,0,0,0,0,-1.6433,-1.6438,-1.6491,-1.647,-1.6478,-1.6507,-1.6518,-1.6523,-1.6532,-1.6562,-1.6567,-1.6548,-1.6589,-1.6595,-1.661,-1.6608,-1.6618,-1.6619,-1.6649,-1.6649,-1.6649,-1.6624,0,0,0,0,0,0,-1.6431,-1.6438,-1.644,-1.647,-1.6479,-1.6503,-1.6518,-1.6524,-1.6535,-1.6538,-1.6567,-1.6571,-1.659,-1.6607,-1.6611,-1.6611,-1.6621,-1.6649,-1.6649,-1.6649,-1.6625,-1.6623,-1.6621,0,0,0,0,0,-1.6428,-1.6431,-1.644,-1.6446,-1.6482,-1.6503,-1.6508,-1.6529,-1.6535,-1.6538,-1.6557,-1.6571,-1.6608,-1.6608,-1.6613,-1.6613,-1.665,-1.6649,-1.6649,-1.6626,-1.6623,-1.6621,0,0,0,0,0,0,-1.64,-1.6435,-1.6446,-1.6459,-1.6477,-1.6508,-1.6512,-1.6525,-1.6543,-1.6544,-1.657,-1.6576,-1.6588,-1.6602,-1.6602,-1.6621,-1.663,-1.6631,-1.6611,-1.6609,-1.6607,-1.6603,-1.6622,0,0,0,0,0,-1.6395,-1.6409,-1.6439,-1.6447,-1.6456,-1.6482,-1.6492,-1.6507,-1.6527,-1.6535,-1.6555,-1.6574,-1.6591,-1.66,-1.6617,-1.6627,-1.6634,-1.663,-1.6628,-1.6626,-1.6626,-1.6633,-1.6631,-1.6647,-1.6647,-1.6647,0,0,-1.6385,-1.6406,-1.6413,-1.6442,-1.6459,-1.6472,-1.6489,-1.6502,-1.6513,-1.6537,-1.6553,-1.6568,-1.6591,-1.6604,-1.6611,-1.6616,-1.6623,-1.6625,-1.6624,-1.6625,-1.6632,-1.6631,-1.6629,-1.6647,-1.6647,-1.6647,0,0,-1.6374,-1.6392,-1.6401,-1.6417,-1.6441,-1.6459,-1.6461,-1.649,-1.6501,-1.6517,-1.6536,-1.6548,-1.6575,-1.6591,-1.6603,-1.6598,-1.6611,-1.6603,-1.6592,-1.6598,-1.6597,-1.6596,-1.6594,-1.6593,-1.6603,-1.6603,-1.6603,0,-1.6359,-1.638,-1.6403,-1.6416,-1.6428,-1.6452,-1.6461,-1.6475,-1.6504,-1.6512,-1.6518,-1.6552,-1.6569,-1.6586,-1.6585,-1.6594,-1.6597,-1.6599,-1.6595,-1.6595,-1.6594,-1.6592,-1.6592,-1.6602,-1.6602,-1.6602,-1.6602,0,-1.636,-1.6374,-1.6378,-1.6406,-1.6418,-1.6429,-1.6454,-1.6464,-1.6478,-1.6495,-1.6511,-1.6532,-1.6554,-1.6559,-1.6572,-1.6578,-1.658,-1.659,-1.66,-1.6591,-1.659,-1.6589,-1.66,-1.66,-1.6601,-1.6601,0,0,-1.6331,-1.6372,-1.6373,-1.6386,-1.6415,-1.6427,-1.6439,-1.646,-1.6468,-1.6487,-1.6497,-1.652,-1.653,-1.6543,-1.6559,-1.6564,-1.6559,-1.6574,-1.6575,-1.657,-1.6566,-1.6558,-1.6557,-1.6568,-1.6568,-1.6568,-1.6564,0,-1.6324,-1.6347,-1.6369,-1.6383,-1.6397,-1.642,-1.643,-1.6449,-1.6466,-1.6479,-1.6497,-1.6513,-1.6525,-1.6533,-1.6539,-1.6558,-1.6559,-1.6559,-1.6578,-1.6579,-1.6571,-1.6556,-1.6548,-1.6542,-1.6564,-1.6564,-1.6564,0,-1.6319,-1.6337,-1.6353,-1.6382,-1.6388,-1.6397,-1.6418,-1.6431,-1.6454,-1.6465,-1.648,-1.6497,-1.651,-1.6519,-1.6539,-1.6538,-1.6548,-1.6558,-1.6559,-1.6561,-1.657,-1.6558,-1.6541,-1.654,-1.6563,-1.6563,-1.6564,0,-1.6296,-1.6325,-1.6338,-1.6349,-1.6382,-1.6388,-1.6402,-1.6425,-1.6436,-1.6455,-1.6462,-1.6482,-1.6493,-1.6508,-1.653,-1.6534,-1.6546,-1.6557,-1.6556,-1.6555,-1.6557,-1.6556,-1.6541,-1.6564,-1.6564,-1.6564,-1.6564,0,-1.6286,-1.6294,-1.6329,-1.6337,-1.6347,-1.6372,-1.6382,-1.6399,-1.6418,-1.643,-1.6452,-1.6462,-1.649,-1.6504,-1.6522,-1.6535,-1.654,-1.6549,-1.6553,-1.6547,-1.6546,-1.6553,-1.6553,-1.6564,-1.6564,-1.6564,-1.6564,0,-1.6261,-1.6285,-1.6301,-1.6331,-1.6339,-1.6346,-1.6372,-1.6381,-1.6399,-1.6413,-1.6418,-1.6446,-1.6463,-1.6487,-1.6512,-1.6523,-1.6534,-1.6541,-1.6527,-1.6529,-1.6526,-1.6526,-1.6515,-1.6514,-1.6537,-1.6537,-1.6537,0,-1.6253,-1.626,-1.6292,-1.6301,-1.6315,-1.633,-1.6342,-1.6367,-1.6378,-1.6404,-1.641,-1.6429,-1.6446,-1.6473,-1.6495,-1.6515,-1.6522,-1.6517,-1.6525,-1.6518,-1.6522,-1.6521,-1.6521,-1.6515,-1.6514,-1.6514,-1.6514,0,-1.6235,-1.6246,-1.6263,-1.6283,-1.6297,-1.6314,-1.6332,-1.6339,-1.6368,-1.6379,-1.6398,-1.6411,-1.6437,-1.6455,-1.6478,-1.6492,-1.6508,-1.6511,-1.6512,-1.6505,-1.6496,-1.65,-1.652,-1.6511,-1.6511,-1.6511,-1.6512,-1.6512,-1.6218,-1.6226,-1.6249,-1.6267,-1.6283,-1.63,-1.631,-1.6329,-1.6345,-1.6367,-1.6382,-1.6399,-1.6422,-1.6454,-1.6468,-1.6482,-1.6488,-1.6489,-1.6489,-1.6489,-1.6486,-1.6494,-1.6486,-1.6486,-1.6486,-1.6487,-1.6487,0,-1.6201,-1.6217,-1.6233,-1.6258,-1.6272,-1.6286,-1.6307,-1.6317,-1.6333,-1.6353,-1.6369,-1.639,-1.6409,-1.6433,-1.6453,-1.646,-1.6468,-1.6464,-1.6464,-1.6467,-1.648,-1.6477,-1.6458,-1.6458,-1.6458,-1.6458,-1.6458,-1.6458,-1.6193,-1.6207,-1.6221,-1.6243,-1.626,-1.6277,-1.6288,-1.6304,-1.632,-1.6342,-1.6358,-1.6374,-1.6396,-1.6418,-1.6436,-1.6442,-1.6449,-1.6443,-1.6452,-1.6463,-1.6466,-1.6468,-1.6466,-1.6444,-1.6444,-1.6437,-1.6437,-1.6437]}]]